Track NAVSTAR 70 (USA 251) now! NAVSTAR 70 (USA 251) is classified as:
1 39741U 14026A 23151.13151671 -.00000073 00000-0 00000-0 0 9995 2 39741 56.6780 14.7178 0029212 314.1174 45.6967 2.00564196 66218